Location: Clinton NY
(43.0598°N, 75.3602°W)
Time: 04:04:42
(UTC-05:00)

ISS - All Passes

Search period start: 25 February 2017 00:00
Search period end: 07 March 2017 00:00
Orbit: 399 x 408 km, 51.6° (Epoch: 25 February)

Date Brightness Start Highest point End Pass type
(mag) Time Alt. Az. Time Alt. Az. Time Alt. Az.
25 Feb - 07:59:08 10° SW 08:02:21 52° SE 08:05:35 10° ENE daylight
25 Feb - 09:36:00 10° W 09:38:57 29° NNW 09:41:54 10° NE daylight
25 Feb - 11:13:47 10° NW 11:16:10 18° N 11:18:32 10° NE daylight
25 Feb - 12:50:24 10° NW 12:53:22 30° NNE 12:56:19 10° E daylight
25 Feb - 14:26:45 10° WNW 14:29:58 50° SW 14:33:08 10° SE daylight
26 Feb - 07:07:03 10° SSW 07:09:56 28° SE 07:12:49 10° ENE daylight
26 Feb - 08:43:07 10° W 08:46:18 42° NNW 08:49:28 10° NE daylight
26 Feb - 10:20:55 10° NW 10:23:22 19° N 10:25:48 10° NE daylight
26 Feb - 11:57:56 10° NW 12:00:39 23° NNE 12:03:22 10° ENE daylight
26 Feb - 13:34:10 10° WNW 13:37:28 87° NNE 13:40:45 10° ESE daylight
26 Feb - 15:12:08 10° WSW 15:13:28 12° SW 15:14:48 10° SSW daylight
27 Feb - 06:15:33 10° S 06:17:35 15° SE 06:19:37 10° E daylight
27 Feb - 07:50:24 10° WSW 07:53:41 70° NNW 07:56:59 10° NE daylight
27 Feb - 09:27:57 10° WNW 09:30:35 21° NNW 09:33:13 10° NE daylight
27 Feb - 11:05:22 10° NW 11:07:53 19° N 11:10:22 10° ENE daylight
27 Feb - 12:41:39 10° NW 12:44:53 50° NNE 12:48:06 10° ESE daylight
27 Feb - 14:18:32 10° W 14:21:09 22° SW 14:23:45 10° S daylight
28 Feb - 06:57:53 10° SW 07:01:08 65° SE 07:04:25 10° ENE daylight
28 Feb - 08:34:58 10° WNW 08:37:50 27° NNW 08:40:42 10° NE daylight
28 Feb - 10:12:40 10° NW 10:15:04 18° N 10:17:27 10° NE daylight
28 Feb - 11:49:11 10° NW 11:52:13 33° NNE 11:55:15 10° E daylight
28 Feb - 13:25:36 10° WNW 13:28:45 41° SW 13:31:50 10° SSE daylight
01 Mar - 06:05:39 10° SSW 06:08:40 34° SE 06:11:41 10° ENE visible
01 Mar - 07:42:00 10° W 07:45:07 37° NNW 07:48:13 10° NE daylight
01 Mar - 09:19:49 10° NW 09:22:13 18° N 09:24:38 10° NE daylight
01 Mar - 10:56:41 10° NW 10:59:29 25° NNE 11:02:17 10° ENE daylight
01 Mar - 12:32:56 10° WNW 12:36:14 78° SW 12:39:30 10° SE daylight
02 Mar - 05:13:52 10° S 05:16:15 19° SE 05:18:38 10° E visible
02 Mar - 06:49:11 10° WSW 06:52:27 59° NNW 06:55:43 10° NE daylight
02 Mar - 08:26:50 10° WNW 08:29:24 20° N 08:31:57 10° NE daylight
02 Mar - 10:04:07 10° NW 10:06:41 20° N 10:09:15 10° ENE daylight
02 Mar - 11:40:22 10° NW 11:43:39 59° NNE 11:46:53 10° ESE daylight
02 Mar - 13:17:28 10° W 13:19:49 18° SW 13:22:09 10° S daylight
03 Mar - 05:56:32 10° SW 05:59:49 79° SSE 06:03:08 10° ENE visible
03 Mar - 07:33:48 10° WNW 07:36:35 25° NNW 07:39:23 10° NE daylight
03 Mar - 09:11:26 10° NW 09:13:50 18° N 09:16:15 10° NE daylight
03 Mar - 10:47:50 10° NW 10:50:57 37° NNE 10:54:03 10° E daylight
03 Mar - 12:24:23 10° WNW 12:27:24 33° SW 12:30:23 10° SSE daylight
04 Mar - 05:04:10 10° SSW 05:07:17 41° SE 05:10:26 10° ENE visible
04 Mar - 06:40:46 10° W 06:43:48 33° NNW 06:46:51 10° NE daylight
04 Mar - 08:18:35 10° NW 08:20:58 18° N 08:23:21 10° NE daylight
04 Mar - 09:55:19 10° NW 09:58:11 27° NNE 10:01:04 10° ENE daylight
04 Mar - 11:31:36 10° WNW 11:34:52 64° SW 11:38:07 10° SE daylight
05 Mar - 04:12:11 10° S 04:14:49 22° SE 04:17:27 10° E visible
05 Mar - 05:47:51 10° WSW 05:51:05 50° NNW 05:54:18 10° NE visible
05 Mar - 07:25:36 10° WNW 07:28:06 19° N 07:30:36 10° NE daylight
05 Mar - 09:02:44 10° NW 09:05:22 21° NNE 09:08:00 10° ENE daylight
05 Mar - 10:38:58 10° NW 10:42:16 71° NNE 10:45:33 10° ESE daylight
05 Mar - 12:16:22 10° W 12:18:22 15° SW 12:20:20 10° S daylight
06 Mar - 03:21:01 10° SSE 03:22:24 12° SE 03:23:48 10° ESE visible
06 Mar - 04:55:07 10° WSW 04:58:24 86° NW 05:01:43 10° ENE visible
06 Mar - 06:32:31 10° WNW 06:35:14 23° NNW 06:37:57 10° NE daylight
06 Mar - 08:10:03 10° NW 08:12:30 19° N 08:14:56 10° NE daylight
06 Mar - 09:46:24 10° NW 09:49:34 42° NNE 09:52:43 10° E daylight
06 Mar - 11:23:03 10° WNW 11:25:55 27° SW 11:28:46 10° SSE daylight
